Weather reports worldwide

Advertisment
Ponferrada, Spain (8053): temperature & dewpoint: 09.10.2019 20:00:00 - 15.10.2019 20:00:00 (CEST)Ponferrada, Spain (8053): wind speed: 09.10.2019 20:00:00 - 15.10.2019 20:00:00 (CEST)Ponferrada, Spain (8053): wind direction: 09.10.2019 20:00:00 - 15.10.2019 20:00:00 (CEST)Ponferrada, Spain (8053): reduced air pressure: 09.10.2019 20:00:00 - 15.10.2019 20:00:00 (CEST)Ponferrada, Spain (8053): visibility: 09.10.2019 20:00:00 - 15.10.2019 20:00:00 (CEST)Ponferrada, Spain (8053): precipitation: 09.10.2019 20:00:00 - 15.10.2019 20:00:00 (CEST)
Date & Time tt [°C] td [°C] ff [km/h] ff [kn] dd ppp [hPa] vv [km] rr [mm]
15.10.2019 20:00:00 - - - - - - - -
15.10.2019 19:00:00 12,9 8,8 4 2 NW 1019,2 19 0,0
15.10.2019 18:00:00 13,1 8,8 5 3 NW 1018,9 20 0,0
15.10.2019 17:00:00 13,2 8,7 5 3 WNW 1019,1 18 -
15.10.2019 16:00:00 13,9 7,6 9 5 WNW 1018,8 20 0,0
15.10.2019 15:00:00 14,0 7,5 8 4 WNW 1019,0 20 0,0
15.10.2019 14:00:00 13,6 6,9 9 5 WNW 1019,6 20 -
15.10.2019 13:00:00 12,8 7,5 5 3 NNW 1019,9 20 0,0
15.10.2019 12:00:00 11,7 7,6 4 2 NW 1020,5 20 0,0
15.10.2019 11:00:00 10,6 7,1 4 2 ENE 1021,1 30 -
15.10.2019 10:00:00 8,8 7,4 2 1 NE 1021,4 20 0,0
15.10.2019 09:00:00 8,0 7,1 2 1 ENE 1020,8 20 0,0
15.10.2019 08:00:00 8,0 6,6 4 2 E 1020,6 20 -
15.10.2019 07:00:00 7,8 6,6 2 1 N 1020,4 20 0,0
15.10.2019 06:00:00 7,6 6,4 2 1 N 1020,1 20 0,0
15.10.2019 05:00:00 8,1 6,4 4 2 N 1019,9 20 -
15.10.2019 04:00:00 8,9 7,0 5 3 NW 1019,6 20 0,0
15.10.2019 03:00:00 8,9 6,7 8 4 W 1019,6 20 0,0
15.10.2019 02:00:00 9,3 6,7 8 4 WNW 1019,0 20 -
15.10.2019 01:00:00 9,0 6,3 8 4 W 1018,7 19 0,0
15.10.2019 00:00:00 9,0 6,6 8 4 W 1018,6 19 0,0
14.10.2019 23:00:00 9,0 6,6 8 4 W 1018,3 20 -
14.10.2019 22:00:00 8,5 7,1 5 3 WSW 1017,2 20 0,8
14.10.2019 21:00:00 9,0 6,4 8 4 W 1016,8 13 0,2
14.10.2019 20:00:00 9,3 6,9 5 3 WSW 1015,9 30 -
14.10.2019 19:00:00 9,7 7,3 8 4 W 1015,2 20 0,6
14.10.2019 18:00:00 10,6 7,3 11 6 WNW 1013,1 7 1,0
14.10.2019 17:00:00 11,5 7,4 11 6 WSW 1011,9 30 -
14.10.2019 16:00:00 10,1 8,0 4 2 NW 1012,4 18 5,0
14.10.2019 15:00:00 13,6 9,8 4 2 E 1009,7 20 0,0
14.10.2019 14:00:00 12,2 9,8 4 2 ENE 1010,1 20 -
14.10.2019 13:00:00 - - - - - - - -
14.10.2019 12:00:00 11,2 9,9 4 2 WSW 1010,6 4,7 1,0
14.10.2019 11:00:00 11,1 9,4 4 2 W 1009,6 1,2 -
14.10.2019 10:00:00 10,7 9,3 5 3 SW 1008,9 20 0,0
14.10.2019 09:00:00 10,4 8,7 5 3 E 1008,2 20 0,8
14.10.2019 08:00:00 10,7 9,5 5 3 ENE 1008,9 12 -
14.10.2019 07:00:00 11,2 8,9 2 1 SSW 1009,3 9 2,0
14.10.2019 06:00:00 12,0 9,2 4 2 W 1009,3 15 0,4
14.10.2019 05:00:00 12,7 8,2 9 5 NW 1008,8 20 -
14.10.2019 04:00:00 16,6 11,5 9 5 W 1006,8 20 0,0
14.10.2019 03:00:00 19,3 8,6 13 7 S 1005,5 20 0,0
14.10.2019 02:00:00 18,5 9,3 9 5 SSW 1006,6 20 -
14.10.2019 01:00:00 17,9 10,0 5 3 NE 1007,3 20 0,0
14.10.2019 00:00:00 16,6 11,5 5 3 SE 1008,3 20 0,0
13.10.2019 23:00:00 15,8 13,6 4 2 WSW 1009,1 20 -
13.10.2019 22:00:00 15,8 14,2 4 2 S 1009,0 10 0,0
13.10.2019 21:00:00 15,5 14,2 4 2 S 1009,3 19 0,0
13.10.2019 20:00:00 15,6 14,1 5 3 ESE 1009,4 18 -
13.10.2019 19:00:00 16,0 14,5 4 2 WSW 1009,9 14 0,0
13.10.2019 18:00:00 16,3 14,7 4 2 NW 1010,0 17 0,0
13.10.2019 17:00:00 16,4 14,8 4 2 NW 1010,3 13 -
13.10.2019 16:00:00 16,1 14,6 4 2 WNW 1010,9 11 0,0
13.10.2019 15:00:00 15,6 14,1 5 3 WSW 1011,7 13 0,0
13.10.2019 14:00:00 15,1 13,5 4 2 SE 1012,2 20 -
13.10.2019 13:00:00 14,4 13,1 4 2 SSE 1012,7 12 0,6
13.10.2019 12:00:00 14,4 12,8 4 2 W 1012,2 3,7 0,4
13.10.2019 11:00:00 14,0 11,7 4 2 WSW 1011,7 17 -
13.10.2019 10:00:00 14,7 9,5 4 2 S 1010,7 18 0,0
13.10.2019 09:00:00 14,3 9,3 5 3 S 1010,5 20 0,0
13.10.2019 08:00:00 13,1 10,1 5 3 S 1011,0 20 -
13.10.2019 07:00:00 12,9 9,9 2 1 NW 1010,7 20 0,0
13.10.2019 06:00:00 12,2 9,9 4 2 SSE 1010,8 18 0,0
13.10.2019 05:00:00 12,7 9,7 2 1 NE 1010,5 19 -
13.10.2019 04:00:00 13,3 10,3 4 2 SE 1010,7 18 0,0
13.10.2019 03:00:00 14,0 9,8 2 1 WSW 1010,3 20 0,0
13.10.2019 02:00:00 15,3 10,1 4 2 E 1010,4 20 -
13.10.2019 01:00:00 16,9 11,0 4 2 ENE 1010,3 20 0,0
13.10.2019 00:00:00 18,6 11,7 4 2 NE 1010,2 20 0,0
12.10.2019 23:00:00 20,0 12,2 4 2 N 1009,6 20 -
12.10.2019 22:00:00 21,4 12,3 9 5 WNW 1008,7 20 0,0
12.10.2019 21:00:00 23,4 11,8 8 4 NW 1008,0 20 0,0
12.10.2019 20:00:00 25,1 9,4 13 7 S 1007,1 20 -
12.10.2019 19:00:00 26,6 9,0 9 5 WSW 1006,5 20 0,0
12.10.2019 18:00:00 27,2 9,1 13 7 W 1006,7 20 0,0
12.10.2019 17:00:00 27,6 8,5 9 5 W 1007,0 20 -
12.10.2019 16:00:00 27,6 8,5 11 6 WNW 1007,2 20 0,0
12.10.2019 15:00:00 26,4 9,7 5 3 W 1008,4 20 0,0
12.10.2019 14:00:00 24,1 10,0 5 3 NNW 1010,2 20 -
12.10.2019 13:00:00 21,4 10,8 4 2 W 1011,8 20 0,0
12.10.2019 12:00:00 18,1 10,7 4 2 SW 1012,9 20 0,0
12.10.2019 11:00:00 14,8 10,2 5 3 W 1013,9 20 -
12.10.2019 10:00:00 12,4 9,4 2 1 ESE 1014,5 20 0,0
12.10.2019 09:00:00 10,7 8,5 4 2 ESE 1014,4 20 0,0
12.10.2019 08:00:00 11,2 8,6 0 0 N 1014,4 25 -
12.10.2019 07:00:00 11,9 8,9 2 1 NE 1013,7 20 0,0
12.10.2019 06:00:00 12,4 9,2 2 1 ESE 1013,9 20 0,0
12.10.2019 05:00:00 13,1 9,5 4 2 SSE 1013,8 20 -
12.10.2019 04:00:00 13,8 9,4 2 1 NE 1014,0 20 0,0
12.10.2019 03:00:00 14,3 9,5 2 1 ENE 1014,3 20 0,0
12.10.2019 02:00:00 15,1 9,7 2 1 W 1014,3 20 -
12.10.2019 01:00:00 15,4 9,5 0 0 N 1014,8 20 0,0
12.10.2019 00:00:00 16,3 9,7 4 2 S 1014,7 20 0,0
11.10.2019 23:00:00 17,1 9,5 2 1 E 1014,3 20 -
11.10.2019 22:00:00 19,1 9,8 0 0 N 1013,2 20 0,0
11.10.2019 21:00:00 21,3 9,8 4 2 E 1012,6 20 0,0
11.10.2019 20:00:00 24,6 10,1 2 1 ESE 1011,9 15 -
11.10.2019 19:00:00 27,3 9,6 9 5 W 1011,6 20 0,0
11.10.2019 18:00:00 28,1 9,9 11 6 W 1011,6 20 0,0
11.10.2019 17:00:00 28,4 10,1 9 5 W 1012,0 30 -
11.10.2019 16:00:00 27,2 8,6 5 3 WNW 1012,9 20 0,0
11.10.2019 15:00:00 24,4 7,9 4 2 W 1014,6 4,2 0,0
11.10.2019 14:00:00 21,2 7,4 4 2 SW 1016,7 30 -
11.10.2019 13:00:00 18,0 6,8 4 2 WNW 1018,3 20 0,0
11.10.2019 12:00:00 15,0 6,8 4 2 WNW 1020,0 13 0,0
11.10.2019 11:00:00 12,1 6,4 4 2 W 1021,3 30 -
11.10.2019 10:00:00 10,2 6,0 2 1 SSW 1021,7 20 0,0
11.10.2019 09:00:00 7,2 5,2 2 1 NNW 1022,0 10 0,0
11.10.2019 08:00:00 7,1 4,9 2 1 ESE 1021,6 30 -
11.10.2019 07:00:00 7,6 4,7 0 0 N 1021,4 20 0,0
11.10.2019 06:00:00 8,2 5,1 2 1 E 1021,0 20 0,0
11.10.2019 05:00:00 8,9 5,6 2 1 E 1021,0 20 -
11.10.2019 04:00:00 9,5 5,9 2 1 NNW 1021,1 20 0,0
11.10.2019 03:00:00 10,1 5,7 0 0 N 1021,2 20 0,0
11.10.2019 02:00:00 10,9 5,8 2 1 ESE 1020,9 20 -
11.10.2019 01:00:00 11,8 5,6 2 1 NE 1020,9 20 0,0
11.10.2019 00:00:00 13,3 5,7 2 1 NNE 1020,5 20 0,0
10.10.2019 23:00:00 15,7 6,7 2 1 WSW 1019,6 14 -
10.10.2019 22:00:00 18,5 5,7 8 4 SSE 1018,6 20 0,0
10.10.2019 21:00:00 18,8 7,2 9 5 SSE 1018,0 20 0,0
10.10.2019 20:00:00 21,6 8,5 2 1 ENE 1016,9 18 -
10.10.2019 19:00:00 25,0 6,7 5 3 WNW 1016,1 19 0,0
10.10.2019 18:00:00 24,9 7,5 5 3 W 1016,3 20 0,0
10.10.2019 17:00:00 24,4 7,9 5 3 WSW 1016,8 20 -
10.10.2019 16:00:00 22,9 7,0 5 3 WSW 1018,0 20 0,0
10.10.2019 15:00:00 20,9 7,5 8 4 SW 1019,3 20 0,0
10.10.2019 14:00:00 17,9 7,0 5 3 W 1021,1 30 -
10.10.2019 13:00:00 15,2 6,5 5 3 W 1022,9 20 0,0
10.10.2019 12:00:00 12,2 6,2 5 3 WNW 1024,4 20 0,0
10.10.2019 11:00:00 10,6 5,4 2 1 NW 1025,2 30 -
10.10.2019 10:00:00 7,8 5,1 2 1 NW 1025,8 20 0,0
10.10.2019 09:00:00 5,5 4,1 4 2 ESE 1025,8 20 0,0
10.10.2019 08:00:00 5,8 4,0 0 0 N 1025,6 25 -
10.10.2019 07:00:00 6,2 4,2 2 1 N 1025,3 15 0,0
10.10.2019 06:00:00 6,5 4,3 2 1 ENE 1025,2 20 0,0
10.10.2019 05:00:00 7,7 5,0 4 2 WNW 1024,8 20 -
10.10.2019 04:00:00 8,1 5,2 4 2 SSE 1024,8 20 0,0
10.10.2019 03:00:00 8,9 5,6 2 1 S 1024,6 20 0,0
10.10.2019 02:00:00 9,4 5,4 2 1 SW 1024,7 20 -
10.10.2019 01:00:00 10,5 5,9 5 3 SSE 1024,2 20 0,0
10.10.2019 00:00:00 11,6 5,9 2 1 ESE 1023,6 20 0,0
09.10.2019 23:00:00 13,0 6,3 2 1 S 1023,2 20 -
09.10.2019 22:00:00 14,4 6,2 4 2 S 1022,4 20 0,0
09.10.2019 21:00:00 15,6 6,3 4 2 WSW 1021,7 20 0,0
09.10.2019 20:00:00 17,3 6,5 5 3 W 1020,6 20 -

tt = temperature
td = dewpoint
ff = wind speed
dd = wind direction
ppp = reduced air pressure
vv = visibility
rr = precipitation

Next stations